This is the latest recevied weather packets stored in our database for station/object KC5DP. If no packets are shown the sender has not sent any weather packets the latest 10 day(s).
| Time | Temp. | Humidity | Pressure | Rain* | Wind** | Luminosity | Snow |
|---|---|---|---|---|---|---|---|
| 1777749721 | 21.11° C | 43% | 1015.8 hPa | 0 mm | - | 758 W/m² | - |
| 1777749417 | 21.11° C | 44% | 1015.9 hPa | 0 mm | - | 765 W/m² | - |
| 1777749115 | 21.67° C | 44% | 1015.8 hPa | 0 mm | - | 770 W/m² | - |
| 1777748812 | 21.67° C | 49% | 1015.7 hPa | 0 mm | - | 774 W/m² | - |
| 1777748510 | 21.67° C | 44% | 1015.9 hPa | 0 mm | - | 786 W/m² | - |
| 1777748210 | 21.67° C | 44% | 1015.9 hPa | 0 mm | - | 786 W/m² | - |
| 1777747907 | 21.11° C | 45% | 1015.9 hPa | 0 mm | - | 786 W/m² | - |
| 1777747603 | 21.11° C | 47% | 1016.1 hPa | 0 mm | - | 791 W/m² | - |
| 1777747298 | 21.67° C | 44% | 1015.8 hPa | 0 mm | - | 793 W/m² | - |
| 1777746995 | 21.67° C | 45% | 1016.1 hPa | 0 mm | - | 798 W/m² | - |
| 1777746691 | 22.22° C | 49% | 1016.1 hPa | 0 mm | - | 799 W/m² | - |
| 1777746387 | 20.56° C | 50% | 1015.9 hPa | 0 mm | - | 805 W/m² | - |
| 1777746082 | 20.56° C | 50% | 1015.9 hPa | 0 mm | - | 805 W/m² | - |
| 1777745780 | 21.11° C | 50% | 1016.2 hPa | 0 mm | - | 804 W/m² | - |
| 1777745479 | 20.56° C | 50% | 1016 hPa | 0 mm | - | 805 W/m² | - |
| 1777745176 | 21.11° C | 47% | 1016.1 hPa | 0 mm | - | 807 W/m² | - |
| 1777744837 | 20.56° C | 54% | 1016.3 hPa | 0 mm | - | 804 W/m² | - |
| 1777744531 | 20.56° C | 54% | 1016.3 hPa | 0 mm | - | 804 W/m² | - |
| 1777744227 | 20.56° C | 49% | 1016.3 hPa | 0 mm | - | 803 W/m² | - |
| 1777743925 | 20.56° C | 53% | 1016.4 hPa | 0 mm | - | 806 W/m² | - |
| 1777743621 | 20.56° C | 53% | 1016.4 hPa | 0 mm | - | 800 W/m² | - |
| 1777743319 | 21.11° C | 54% | 1016.3 hPa | 0 mm | - | 794 W/m² | - |
| 1777743017 | 20.56° C | 56% | 1016.5 hPa | 0 mm | - | 790 W/m² | - |
| 1777742714 | 20.56° C | 57% | 1016.4 hPa | 0 mm | - | 787 W/m² | - |
| 1777742409 | 20.56° C | 58% | 1016.4 hPa | 0 mm | - | 786 W/m² | - |
* Rain latest hour (hover to see other rain measurements)
** Current wind speed in m/s (hover to see current wind gust speed)